Location: Comune di Castel d�Azzano
(45.3500°N, 10.9500°E)
Time: 09:40:28
(UTC+00:00)

Daily predictions for brighter satellites

Satellite Brightness Start Highest point End
(mag) Time Altitude Azimuth Time Altitude Azimuth Time Altitude Azimuth
Cosmos 2056 Rocket 4.2 19:24:59 10° SSW 19:30:01 60° WNW 19:35:07 10° NNE
STARLINK-1126 3.7 19:26:37 10° WNW 19:30:48 85° NNE 19:34:57 10° ESE
Aureole 2 Rocket 3.8 19:29:29 10° SE 19:31:30 16° ESE 19:33:28 10° ENE
STARLINK-1240 3.7 19:29:00 10° WSW 19:33:09 86° NW 19:37:19 10° ENE
Meteor 1-4 Rocket 2.8 19:30:02 10° SSW 19:33:27 70° WNW 19:36:56 10° N
Cosmos 1437 Rocket 3.8 19:30:23 10° SSE 19:33:32 25° E 19:36:43 10° NE
STARLINK-1082 3.6 19:31:33 10° WNW 19:35:43 89° SW 19:39:52 10° SE
USA 186 4.2 19:35:20 10° SW 19:37:05 16° W 19:38:55 10° NW
Lacrosse 5 2.0 19:32:31 10° NW 19:37:36 78° SW 19:42:39 10° SE
STARLINK-1203 3.8 19:33:36 10° WSW 19:37:48 80° NNW 19:42:02 10° ENE
STARLINK-1216 3.8 19:33:59 10° WSW 19:38:08 80° NNW 19:42:17 10° ENE
STARLINK-1100 3.6 19:36:31 10° WNW 19:40:41 83° SSW 19:44:49 10° SE
ISS -3.5 19:37:23 10° WNW 19:40:44 63° SSW 19:44:03 10° SE
COSMOS 2406 4.1 19:36:38 10° NW 19:42:10 48° WSW 19:47:37 10° S
Cosmos 1975 3.8 19:38:48 10° NNW 19:42:43 49° W 19:46:35 10° SSW
STARLINK-1237 3.9 19:38:58 10° WSW 19:43:07 75° NNW 19:47:16 10° NE
CZ-2C R/B 2.9 19:37:54 10° NNE 19:43:34 82° WNW 19:49:10 10° SSW
STARLINK-1083 3.7 19:41:31 10° WNW 19:45:41 77° SSW 19:49:44 10° SE
Cosmos 1674 Rocket 4.3 19:43:05 10° SSE 19:47:01 34° E 19:51:00 10° NNE
Meteor 2-4 Rocket 3.6 19:41:41 10° S 19:47:02 88° ESE 19:52:26 10° N
STARLINK-1202 4.0 19:43:58 10° WSW 19:48:06 70° NNW 19:52:15 10° NE
NOSS 2-2 (E) 4.1 19:45:49 10° S 19:48:51 27° ESE 19:52:06 10° ENE
EXPRESS MD2 3.3 19:47:13 10° SW 19:49:54 45° SE 19:54:35 10° ENE
STARLINK-1125 3.7 19:46:31 10° WNW 19:50:39 72° SW 19:54:31 11° SE
Cosmos 2297 4.1 19:48:22 10° S 19:53:40 42° ESE 19:59:01 10° NE
Cosmos 1833 Rocket 3.2 19:48:10 10° NNW 19:53:41 59° WSW 19:59:11 10° S
Cosmos 1943 Rocket 3.5 19:50:33 10° SE 19:54:19 19° E 19:58:08 10° ENE
STARLINK-1109 3.8 19:51:30 10° WNW 19:55:37 66° SW 19:59:18 13° SE
STARLINK-1246 4.2 19:54:00 10° WSW 19:58:06 62° NNW 20:02:13 10° NE
IGS 5A 4.0 19:55:29 11° SE 19:59:13 44° ENE 20:03:11 10° N
Cosmos 1452 Rocket 3.6 19:55:01 10° SSW 20:00:18 89° WNW 20:05:38 10° NNE
Cosmos 2082 Rocket 2.3 19:54:39 10° NNW 20:00:25 84° WSW 20:06:02 10° SSE
STARLINK-1091 3.8 19:56:28 10° WNW 20:00:34 61° SW 20:04:04 14° SE
Cosmos 332 Rocket 3.8 19:55:43 10° SSW 20:00:36 73° ESE 20:05:30 10° NNE
BREEZE-M DEB 3.2 19:58:57 10° SSW 20:00:54 25° SE 20:04:02 10° ENE
Landsat 7 4.2 19:57:48 11° SE 20:02:12 51° ENE 20:06:50 10° N
STARLINK-1097 4.4 19:58:47 10° NW 20:02:48 47° NNE 20:06:50 10° E
STARLINK-1224 4.3 19:58:59 10° WSW 20:03:04 58° NNW 20:07:11 10° NE
Intercosmos 24 3.6 19:59:36 10° N 20:03:10 87° E 20:07:04 10° S
STARLINK-1072 3.9 20:01:29 10° WNW 20:05:33 56° SW 20:08:52 15° SE
Cosmos 1461 2.8 20:02:56 10° SSW 20:07:02 73° ESE 20:11:23 10° NE
STARLINK-1099 4.3 20:03:45 10° NW 20:07:48 50° NNE 20:11:51 10° E
STARLINK-1225 4.5 20:04:01 10° WSW 20:08:05 55° NNW 20:12:10 10° NE
Okean 3 4.2 20:04:52 10° SSW 20:09:05 56° WNW 20:13:20 10° N
Cosmos 2369 Rocket 3.6 20:07:22 13° SE 20:10:14 19° E 20:14:02 10° ENE
STARLINK-1096 4.1 20:06:29 10° WNW 20:10:31 51° SW 20:13:39 16° SSE
SAR-Lupe-2 3.8 20:08:12 10° NNE 20:11:44 51° E 20:15:09 10° S
STARLINK-1104 4.2 20:08:43 10° NW 20:12:47 53° NNE 20:16:40 11° ESE
NOSS 2-2 (C) 3.6 20:10:03 10° S 20:13:21 37° ESE 20:16:54 10° NE
STARLINK-1079 4.2 20:11:29 10° WNW 20:15:28 47° SW 20:18:26 17° SSE
ATLAS 2AS CENTAUR R/B 4.3 20:13:12 13° SE 20:17:12 20° ESE 20:22:28 10° ENE
STARLINK-1144 4.1 20:13:42 10° NW 20:17:48 56° NNE 20:21:27 13° ESE
SL-4 R/B 3.5 20:15:52 10° WNW 20:18:00 18° WSW 20:20:00 10° SSW
SPOT 5 3.8 20:14:18 15° SE 20:18:20 41° ENE 20:23:21 10° N
STARLINK-1116 4.3 20:16:29 10° WNW 20:20:26 43° SW 20:23:13 17° SSE
Meteor 1-13 Rocket 4.5 20:14:58 10° SSW 20:20:34 75° WNW 20:26:22 10° N
STARLINK-1103 4.0 20:18:40 10° NW 20:22:46 60° NNE 20:26:14 14° ESE
ERS-1 Rocket 3.3 20:19:40 16° SE 20:23:30 51° ENE 20:28:22 10° N
STARLINK-1101 3.9 20:23:38 10° NW 20:27:46 64° NNE 20:31:01 16° ESE
Cosmos 1066 Rocket 4.1 20:22:52 10° S 20:28:13 68° E 20:33:33 10° NNE
USA 245 2.6 20:27:56 18° S 20:29:59 67° WSW 20:32:34 10° NNW
USA 238 DEB 4.3 20:25:12 10° NNW 20:32:17 57° NE 20:38:25 15° ESE
USA 238 4.3 20:25:18 10° NNW 20:32:23 57° NE 20:38:32 15° ESE
STARLINK-1102 3.8 20:28:37 10° NW 20:32:46 68° NNE 20:35:48 18° ESE
Resurs 01 Rocket 3.2 20:29:35 10° SSW 20:33:33 31° W 20:37:32 10° NNW
Cosmos 2278 Rocket 4.1 20:28:29 10° WSW 20:33:34 33° NW 20:38:40 10° N
Nadezhda 4 Rocket 3.9 20:28:33 10° S 20:34:38 71° E 20:40:44 10° NNE
Okean 1 Rocket 3.0 20:30:18 10° N 20:34:47 78° E 20:37:54 19° SSE
Cosmos 1805 3.7 20:31:15 10° N 20:35:03 45° ENE 20:37:07 23° SE
Cosmos 1741 Rocket 4.4 20:30:23 10° NNW 20:35:30 58° WSW 20:39:49 14° S
GPS 2-04 Rocket1 4.2 20:33:38 10° SW 20:35:55 16° S 20:35:57 16° S
STARLINK-1111 3.7 20:33:35 10° NW 20:37:44 73° NNE 20:40:34 19° ESE
Cosmos 1455 Rocket 4.3 20:36:37 10° NNE 20:40:18 26° ENE 20:42:18 19° ESE
STARLINK-1073 3.7 20:38:34 10° WNW 20:42:44 78° NNE 20:45:22 22° ESE
SL-8 R/B 3.7 20:37:56 10° WNW 20:42:46 88° SSW 20:46:16 19° ESE
SL-4 R/B 3.0 20:42:56 10° SSW 20:47:09 33° SE 20:51:28 10° ENE
Terra 2.2 20:44:22 22° SE 20:47:11 52° ENE 20:51:48 10° N
Cosmos 1110 Rocket 4.0 20:42:03 10° SSW 20:47:14 88° WNW 20:52:27 10° NNE
ATLAS 3B CENTAUR R/B 4.0 20:37:08 10° WSW 20:47:32 26° S 20:50:57 20° SSE
STARLINK-1121 3.6 20:43:33 10° WNW 20:47:43 83° NNE 20:50:08 24° ESE
Spot 2 Rocket 4.1 20:44:03 13° S 20:48:27 51° W 20:53:23 10° NNW
SPOT 1/Viking Rocket 3.7 20:45:17 17° S 20:49:16 71° WSW 20:54:26 10° NNW
Cosmos 1842 4.1 20:48:51 26° SE 20:50:06 32° E 20:53:36 10° NNE
CARTOSAT-1 3.5 20:47:49 23° SSE 20:50:26 84° ENE 20:54:47 10° NNW
Abrixas rocket 2.1 20:48:18 10° WNW 20:51:11 54° SSW 20:51:50 42° SSE
STARLINK-1106 3.6 20:48:32 10° WNW 20:52:42 89° NNE 20:54:56 26° ESE
STARLINK-1112 3.5 20:53:30 10° WNW 20:57:39 85° SW 20:59:42 29° SE
STARLINK-1128 3.5 20:58:28 10° WNW 21:02:38 79° SW 21:04:28 32° SE
Cosmos 1331 Rocket 4.2 20:58:55 10° SSW 21:04:02 71° WNW 21:09:15 10° NNE
Aureole 2 Rocket 4.4 21:02:22 10° WSW 21:04:59 25° WNW 21:07:31 10° N
STARLINK-1113 3.6 21:03:28 10° WNW 21:07:37 73° SW 21:09:15 35° SE
Cosmos 1733 3.1 21:04:21 10° N 21:08:10 75° E 21:09:32 38° SSE
COSMOS 2455 4.1 21:09:44 20° ESE 21:10:34 21° ESE 21:14:52 10° ENE
Cosmos 1378 3.6 21:09:41 20° SSW 21:12:02 58° W 21:15:43 10° N
STARLINK-1119 3.6 21:08:29 10° WNW 21:12:36 68° SW 21:14:04 38° SE
Cosmos 1302 Rocket 3.9 21:10:14 19° SSW 21:14:07 77° ESE 21:19:26 10° NNE
Cosmos 1271 Rocket 3.8 21:14:22 27° ESE 21:14:48 28° E 21:18:11 10° NNE
USA 215 4.5 21:09:03 10° E 21:15:02 39° NNE 21:21:01 10° NW
Cosmos 1486 Rocket 4.3 21:10:25 10° NNW 21:15:39 57° ENE 21:18:13 29° SE
Cosmos 1242 Rocket 3.1 21:15:26 37° ESE 21:15:57 40° E 21:19:26 10° NNE
Cosmos 1544 Rocket 4.1 21:13:02 10° N 21:17:12 45° ENE 21:18:39 33° SE
STARLINK-1114 3.7 21:13:27 10° WNW 21:17:33 62° SW 21:18:49 40° SSE
MTI 3.6 21:15:21 10° NNE 21:18:29 73° E 21:18:58 58° SSE
STARLINK-60 3.7 21:20:10 37° E 21:20:10 37° E 21:22:21 10° ENE
Lacrosse 5 4.0 21:17:09 10° W 21:19:49 14° WSW 21:22:07 11° SSW
Cosmos 1092 Rocket 4.0 21:15:31 18° S 21:20:10 84° W 21:26:22 10° N
NOSS 2-2 (D) 4.3 21:18:21 10° WSW 21:21:48 44° NW 21:25:40 10° NNE
STARLINK-1130 (DARKSAT) 3.8 21:18:27 10° WNW 21:22:31 57° SW 21:23:37 42° SSE
Cosmos 1707 3.8 21:24:35 28° E 21:24:55 29° E 21:28:17 10° NNE
CENTAUR R/B 3.4 21:16:59 10° NW 21:24:59 69° NE 21:31:08 22° SE
STARLINK-1084 3.9 21:23:27 10° WNW 21:27:29 53° SW 21:28:24 43° S
ATLAS 3B R/B 3.8 21:21:41 10° NNW 21:27:59 39° NE 21:33:57 12° ESE
SL-27 R/B 2.3 21:25:12 10° NNW 21:28:48 86° ENE 21:29:28 57° SSE
NOSS 3-2 (C) 4.1 21:22:40 10° NW 21:30:13 79° NE 21:35:37 25° SE
Cosmos 1766 4.1 21:27:18 10° NNW 21:31:07 44° W 21:32:47 28° SSW
Cosmos 1726 3.8 21:29:22 10° NNE 21:32:14 21° ENE 21:32:50 20° E
STARLINK-1098 3.9 21:28:27 10° WNW 21:32:27 48° SW 21:33:11 43° S
Cosmos 1867 4.3 21:29:44 10° NNW 21:35:02 47° NE 21:38:07 23° ESE
COSMOS 2487 4.4 21:33:41 10° NNE 21:36:16 19° ENE 21:37:03 18° ENE
STARLINK-1123 4.0 21:33:26 10° WNW 21:37:23 44° SW 21:37:56 41° SSW
Cosmos 1943 Rocket 2.5 21:31:57 10° SW 21:37:28 67° WNW 21:43:04 10° NNE
Cosmos 1992 Rocket 4.3 21:36:08 37° SSE 21:37:42 49° ESE 21:42:43 10° NNE
NOSS 3-4 (A) 3.6 21:36:32 31° S 21:39:00 49° ESE 21:45:00 10° NE
NOSS 3-4 (C) 3.6 21:36:40 31° S 21:39:06 49° ESE 21:45:06 10° NE
Cosmos 1428 Rocket 4.5 21:36:33 25° S 21:40:27 86° W 21:46:47 10° N
STARLINK-1097 4.1 21:38:28 10° WNW 21:42:22 41° SW 21:42:45 40° SSW
SeaSat 1 2.9 21:39:00 10° NE 21:43:41 42° ESE 21:44:34 38° SE
EO 1 Del DPAF 3.6 21:40:41 10° NNE 21:44:20 45° E 21:44:29 45° ESE
Cosmos 1975 Rocket 3.8 21:44:36 23° SW 21:47:03 49° WNW 21:51:21 10° N
STARLINK-1099 4.3 21:43:29 10° WNW 21:47:19 37° SW 21:47:31 37° SW
STARLINK-1212 4.1 21:47:06 10° NW 21:50:03 39° NNE 21:50:47 33° ENE
STARLINK-1105 4.0 21:47:34 10° NW 21:50:31 39° NNE 21:51:13 33° ENE
Cosmos 292 Rocket 3.8 21:48:20 30° SSW 21:50:43 82° WNW 21:55:35 10° NNE
STARLINK-1247 4.0 21:48:26 10° NW 21:51:25 40° NNE 21:52:06 34° ENE
BREEZE-M DEB (TANK) 3.8 21:37:53 10° WSW 21:51:43 72° NNW 21:55:25 10° ENE
STARLINK-1227 4.0 21:48:56 10° NW 21:51:54 40° NNE 21:52:33 35° ENE
Meteor 2-10 4.3 21:47:10 10° N 21:52:06 52° ENE 21:53:43 37° SE
STARLINK-1104 4.5 21:48:29 10° WNW 21:52:15 34° SW 21:52:18 34° SW
STARLINK-1226 4.0 21:49:47 10° NW 21:52:46 41° NNE 21:53:24 35° ENE
BREEZE-M DEB (TANK) 3.7 21:49:12 10° WNW 21:52:54 51° N 21:56:49 10° E
Cosmos 2369 Rocket 2.4 21:49:04 16° SW 21:53:39 70° WNW 21:59:18 10° NNE
STARLINK-1215 3.9 21:50:40 10° NW 21:53:40 41° NNE 21:54:16 36° ENE
STARLINK-1217 3.9 21:52:29 10° NW 21:55:29 42° NNE 21:56:00 38° NE
S3M 4.1 21:49:24 10° N 21:55:33 66° E 21:58:11 36° SSE
STARLINK-1229 3.8 21:53:23 10° NW 21:56:24 43° NNE 21:56:54 39° NE
STARLINK-1270 3.8 21:54:17 10° NW 21:57:18 43° NNE 21:57:45 40° NE
STARLINK-1189 3.8 21:56:04 10° NW 21:59:06 45° NNE 21:59:29 42° NE
Aureole 3 Rocket 4.4 21:52:56 10° NNW 21:59:17 81° W 22:03:53 30° S
ATLAS CENTAUR R/B 1.7 21:59:35 49° ESE 21:59:35 49° ESE 22:03:37 10° NE
STARLINK-1188 3.7 21:56:59 10° NW 22:00:01 45° NNE 22:00:22 43° NE
STARLINK-1187 3.5 21:58:04 10° NW 22:01:06 50° NNE 22:01:14 50° NE
Cosmos 1340 Rocket 3.4 21:58:01 10° N 22:01:55 43° ENE 22:02:31 40° E
STARLINK-1191 3.6 21:59:25 10° NW 22:02:26 47° NNE 22:02:39 46° NE
STARLINK-1221 3.6 22:00:22 10° NW 22:03:23 47° NNE 22:03:34 47° NE
Aureole 3 4.4 22:01:00 10° NNE 22:03:24 24° ENE 22:03:24 24° ENE
Cosmos 1025 Rocket 2.9 22:02:58 56° S 22:03:51 86° E 22:08:10 10° N
STARLINK-1222 3.6 22:01:13 10° NW 22:04:15 48° NNE 22:04:23 48° NE
STARLINK-1214 3.6 22:02:06 10° NW 22:05:09 49° NNE 22:05:15 49° NE
Thor Agena Rocket 3.5 21:59:53 10° NNE 22:05:13 84° ESE 22:07:12 40° S
ATLAS 2AS CENTAUR R/B 3.0 22:00:30 16° SSW 22:07:07 81° SE 22:15:06 10° NE
Cosmos 1656 Rocket 3.6 22:04:49 36° SSW 22:07:15 80° ESE 22:12:50 10° NNE
BREEZE M DEB (TANK) 3.5 22:05:23 10° W 22:08:09 33° N 22:08:33 31° NNE
Cosmos 1553 Rocket 4.0 22:02:46 10° NNW 22:09:02 75° W 22:11:43 36° S
Cosmos 1953 2.3 22:06:18 10° N 22:10:18 66° E 22:10:41 61° ESE
BREEZE-M DEB (TANK) 3.7 21:58:44 10° WNW 22:10:29 78° SSW 22:11:56 43° SE
STARLINK-1228 3.2 22:07:33 10° NW 22:11:02 73° NNE 22:11:08 73° NE
Cosmos 1470 3.2 22:07:34 10° NNW 22:11:19 50° W 22:11:51 46° WSW
Cosmos 2292 Rocket 3.7 22:13:24 43° E 22:13:24 43° E 22:16:16 10° NNE
STARLINK-1235 3.3 22:10:15 10° NW 22:13:12 65° NNW 22:13:12 65° NNW
Cosmos 968 Rocket 3.7 22:11:06 10° NNW 22:16:09 57° WSW 22:17:31 42° SSW
Cosmos 1655 Rocket 3.9 22:15:01 37° S 22:17:40 89° E 22:23:59 10° N
Cosmos 1455 Rocket 4.4 22:14:21 10° NNW 22:18:06 29° W 22:19:25 24° WSW
SL-4 R/B 3.6 22:20:18 16° NNE 22:20:18 16° NNE 22:20:56 10° N
ATLAS 5 CENTAUR R/B 1.5 22:21:46 64° WSW 22:22:12 83° NW 22:24:34 10° NE
Cosmos 1758 4.1 22:20:58 10° NNW 22:24:48 42° W 22:25:25 39° WSW
Terra 3.8 22:23:15 15° WSW 22:25:13 19° W 22:28:37 10° NW
SL-4 R/B 2.6 22:21:53 10° WSW 22:26:42 71° NNW 22:31:33 10° ENE
Cosmos 2228 3.7 22:24:00 10° N 22:28:01 40° ENE 22:28:36 38° E
Meteor 2-15 4.5 22:22:44 10° N 22:28:55 74° E 22:31:06 42° SSE
STARLINK-1234 4.0 22:28:01 10° WNW 22:30:17 41° WNW 22:30:17 41° WNW
In-Cosmos 22 4.0 22:30:05 49° S 22:31:33 84° E 22:36:52 10° NNE
Cosmos 2266 Rocket 3.8 22:33:43 42° S 22:35:57 90° E 22:42:02 10° N
Cosmos 1503 Rocket 4.4 22:31:07 10° NNW 22:36:17 54° WSW 22:37:35 43° SSW
STARLINK-1209 4.3 22:34:11 10° WNW 22:36:13 34° WNW 22:36:13 34° WNW
STARLINK-1204 4.5 22:37:40 10° NW 22:41:42 48° NNE 22:43:59 23° E
SJ 16-02 3.9 22:41:47 10° NNE 22:44:03 14° NE 22:46:20 10° E
STARLINK-1238 4.4 22:42:39 10° NW 22:46:43 51° NNE 22:48:47 26° E
Cosmos 1674 2.6 22:48:20 76° ENE 22:48:20 76° ENE 22:51:58 10° N
Meteor 2-15 Rocket 4.4 22:42:39 10° N 22:48:51 83° E 22:50:55 44° SSE
Helios 1B rocket 4.2 22:47:08 10° NE 22:50:09 20° E 22:50:09 20° E
STARLINK-1201 4.3 22:47:37 10° NW 22:51:43 54° NNE 22:53:33 29° E
COSMOS 2455 3.0 22:52:49 30° SW 22:55:53 73° WNW 23:01:56 10° NNE
STARLINK-1206 4.1 22:52:37 10° NW 22:56:43 57° NNE 22:58:21 33° E
Cosmos 883 Rocket 4.5 22:50:50 10° NNW 22:56:56 71° W 22:58:57 43° SSW
USA 215 3.3 22:52:56 21° ESE 22:57:37 83° NE 23:04:11 10° NW
Cosmos 2219 4.3 22:53:37 10° NNW 22:58:53 38° NE 23:02:17 20° ESE
STARLINK-1205 4.0 22:57:34 10° NW 23:01:42 61° NNE 23:03:07 37° E
Helios 1A 2.9 23:01:35 70° SE 23:01:58 79° ENE 23:06:11 10° N
Cosmos 2297 Rocket 3.5 22:57:59 10° NNW 23:03:08 34° NE 23:07:00 16° ESE
Lacrosse 4 Rocket 4.3 23:04:08 10° N 23:06:25 14° NE 23:08:41 10° ENE
STARLINK-1218 3.9 23:02:34 10° NW 23:06:42 65° NNE 23:07:55 42° E
STARLINK-1368 4.3 23:08:27 38° ENE 23:08:27 38° ENE 23:10:59 10° ENE
Cosmos 1726 3.6 23:04:16 10° NNW 23:07:20 27° W 23:07:20 27° W
ALOS 2 2.9 23:07:47 48° WSW 23:08:08 50° W 23:12:25 10° NNW
STARLINK-1369 4.2 23:11:48 42° ENE 23:11:48 42° ENE 23:14:28 10° ENE
Timation 2 Rocket 3.9 23:04:21 10° NNW 23:10:42 88° ENE 23:12:55 42° SSE
Cosmos 2058 Rocket 3.2 23:06:54 10° N 23:11:20 62° ENE 23:11:58 55° ESE
COSMOS 2487 4.1 23:08:20 10° NW 23:10:32 25° WNW 23:10:32 25° WNW
STARLINK-1254 3.8 23:07:32 10° NW 23:11:41 69° NNE 23:12:41 48° E
STARLINK-1372 4.0 23:15:07 47° ENE 23:15:07 47° ENE 23:17:57 10° ENE
CENTAUR R/B 3.9 23:08:10 10° NW 23:15:31 37° WSW 23:18:17 30° SSW
Meteor 2-5 Rocket 3.6 23:14:12 51° S 23:15:42 88° E 23:21:22 10° N
STARLINK-1231 3.7 23:12:30 10° NW 23:16:39 74° NNE 23:17:27 55° E
STARLINK-1378 3.8 23:18:28 52° ENE 23:18:28 52° ENE 23:21:28 10° ENE
Cosmos 1867 4.5 23:13:40 10° NW 23:18:27 32° WSW 23:18:45 31° WSW
ATLAS 3B R/B 2.8 23:12:18 10° NW 23:18:58 58° WSW 23:21:09 42° S
SL-14 R/B 3.4 23:19:11 61° E 23:19:11 61° E 23:22:52 10° NNE
FALCON 9 DEB 3.9 23:20:07 49° NW 23:20:21 50° NNW 23:23:44 10° NE
SeaSat 1 3.9 23:16:43 10° N 23:21:04 32° NW 23:24:20 16° WSW
STARLINK-1379 3.7 23:21:51 58° ENE 23:21:51 58° ENE 23:24:59 10° ENE
Cosmos 1606 Rocket 3.8 23:17:06 10° NNW 23:21:19 52° W 23:21:36 51° WSW
STARLINK-1232 3.6 23:17:29 10° WNW 23:21:40 79° NNE 23:22:15 63° E
STARLINK-1329 3.6 23:23:14 61° ENE 23:23:14 61° ENE 23:26:27 10° ENE
Meteor 2-21 4.4 23:20:59 46° S 23:23:01 86° E 23:29:15 10° N
STARLINK-1362 3.5 23:26:40 67° ENE 23:26:40 67° ENE 23:30:01 10° ENE
STARLINK-1208 3.5 23:22:27 10° WNW 23:26:37 85° NE 23:27:00 72° ESE
ATLAS CENTAUR R/B 2.9 23:26:44 10° NNW 23:28:56 32° NE 23:32:56 10° ESE
Cosmos 1656 4.4 23:27:53 35° SE 23:29:00 38° ESE 23:34:09 10° NE
STARLINK-1373 3.4 23:30:05 74° NE 23:30:05 74° NE 23:33:37 10° ENE
RESURS DK-1 2.8 23:29:48 48° W 23:30:27 54° WNW 23:34:33 10° NNE
STARLINK-1365 3.4 23:31:12 80° NNE 23:31:12 80° NNE 23:34:52 10° ENE
STARLINK-1271 3.5 23:27:27 10° WNW 23:31:37 89° WSW 23:31:49 82° SE
STARLINK-1390 3.4 23:33:34 79° NNE 23:33:34 79° NNE 23:37:14 10° ENE
Cosmos 1697 Rocket 4.1 23:32:47 22° ESE 23:34:06 24° ESE 23:38:30 10° NE
Cosmos 2084 3.8 23:33:36 48° WSW 23:34:40 65° NW 23:39:07 10° NE
Cosmos 1626 2.1 23:36:00 75° NW 23:36:00 75° NW 23:39:35 10° N
BREEZE-M R/B 3.3 23:31:44 21° SW 23:36:31 76° SSE 23:40:17 10° ENE
STARLINK-1154 3.4 23:32:26 10° WNW 23:36:35 84° SW 23:36:35 84° SW
Okean 1-7 Rocket 3.6 23:37:39 61° SW 23:38:16 71° W 23:42:48 10° N
ATLAS CENTAUR R/B 3.4 23:35:42 13° W 23:38:40 24° NW 23:42:03 10° NNE
Cosmos 2227 Rocket 2.8 23:34:37 10° NNW 23:40:13 54° ENE 23:43:30 24° SE
STARLINK-1197 3.5 23:37:23 10° WNW 23:41:21 75° WSW 23:41:21 75° WSW
CZ-4 R/B 3.7 23:38:11 10° NNE 23:42:59 80° ESE 23:43:50 59° S
STARLINK-1198 3.6 23:42:22 10° WNW 23:46:07 66° W 23:46:07 66° W
Cosmos 1602 Rocket 4.0 23:47:23 44° ESE 23:47:59 47° E 23:52:09 10° NNE
SL-08 ROCKET BODY 4.5 23:46:46 41° SSE 23:48:44 65° E 23:54:32 10° NNE
STARLINK-1199 3.8 23:47:23 10° WNW 23:50:55 57° W 23:50:55 57° W
Meteor 2-21 Rocket 4.5 23:50:06 42° SSW 23:52:17 75° W 23:58:30 10° N
